Location: Brno
(49.2000°N, 16.6330°E)
Time: 18:05:47
(UTC+01:00)

ISS - Visible Passes

Search period start: 17 January 2017 00:00
Search period end: 27 January 2017 00:00
Orbit: 400 x 410 km, 51.6° (Epoch: 18 January)

Date Brightness Start Highest point End Pass type
(mag) Time Alt. Az. Time Alt. Az. Time Alt. Az.
17 Jan -2.0 05:55:19 25° SW 05:55:25 25° SW 05:58:09 10° SSE visible
18 Jan -0.9 05:05:25 18° SSE 05:05:25 18° SSE 05:06:25 10° SE visible
19 Jan -0.8 05:48:15 12° SSW 05:48:15 12° SSW 05:48:49 10° SSW visible
